M I D A S
Marine Information and Data Acquisition System
Tripno 2229 of the Zeeleeuw from 2011-08-22 06:36:04 to 2011-08-22 18:08:07
Back to CruiseResearch ActivitiesStationsMapUnderway DataData graphs

EquipmentUnitsComments
TimeDGPSUTC
LatitudeDGPSDM.mWGS84
LongitudeDGPSDM.mWGS84
SpeedMeteo Stationm/sRelative wind speed
DirectionMeteo StationdegRelative wind direction
TemperatureMeteo Stationdeg CelciusAir temperature
PressureMeteo StationPaAtmospheric pressure
HumidityMeteo Station%Relative humidity
Missing or incorrect values are displayed as -999
Metereological data collected by the RV Zeeleeuw from 2011-08-22 06:31:42 to 2011-08-22 18:06:41
                                                                                    Next 1000 lines
Time Latitude Longitude Speed Direction Temperature Pressure Humidity
2011-08-22 06:31:52 51°13.636 2°56.017 4.5 81 18.2 101810 45
2011-08-22 06:31:58 51°13.636 2°56.014 3.4 35 18.2 101810 45
2011-08-22 06:32:02 51°13.636 2°56.011 3.9 76 18.2 101810 46
2011-08-22 06:32:07 51°13.637 2°56.007 4.4 31 18.2 101810 46
2011-08-22 06:32:12 51°13.638 2°56.003 4.5 76 18.2 101810 45
2011-08-22 06:32:18 51°13.639 2°55.997 4.2 40 18.2 101820 45
2011-08-22 06:32:23 51°13.64 2°55.991 3.9 81 18.2 101820 45
2011-08-22 06:32:29 51°13.641 2°55.983 5.1 40 18.2 101820 45
2011-08-22 06:32:34 51°13.643 2°55.975 4.9 80 18.2 101820 45
2011-08-22 06:32:40 51°13.645 2°55.965 5.3 40 18.2 101820 45
2011-08-22 06:32:46 51°13.647 2°55.955 5.4 80 18.2 101820 43
2011-08-22 06:32:50 51°13.649 2°55.948 5.1 34 18.2 101820 45
2011-08-22 06:32:56 51°13.651 2°55.937 5.2 81 18.2 101820 45
2011-08-22 06:33:01 51°13.653 2°55.928 5.6 32 18.2 101820 45
2011-08-22 06:33:06 51°13.655 2°55.918 5 76 18.2 101820 46
2011-08-22 06:33:10 51°13.657 2°55.911 4.3 40 18.2 101820 46
2011-08-22 06:33:16 51°13.66 2°55.899 6.1 74 18.2 101820 46
2011-08-22 06:33:21 51°13.662 2°55.89 4.3 34 18.2 101820 46
2011-08-22 06:33:26 51°13.665 2°55.881 4.9 82 18.2 101820 46
2011-08-22 06:33:30 51°13.667 2°55.874 5.2 38 18.2 101820 45
2011-08-22 06:33:36 51°13.671 2°55.863 3.3 82 18.2 101820 45
2011-08-22 06:33:41 51°13.674 2°55.855 4.4 31 18.2 101820 45
2011-08-22 06:33:46 51°13.677 2°55.846 4.8 79 18.2 101820 45
2011-08-22 06:33:50 51°13.68 2°55.839 5 39 18.2 101820 45
2011-08-22 06:33:56 51°13.685 2°55.829 4.8 76 18.2 101820 46
2011-08-22 06:34:01 51°13.689 2°55.821 5.8 33 18.2 101820 45
2011-08-22 06:34:06 51°13.693 2°55.814 6 83 18.2 101820 45
2011-08-22 06:34:10 51°13.695 2°55.807 5.5 32 18.2 101820 45
2011-08-22 06:34:16 51°13.7 2°55.798 6.8 76 18.2 101820 45
2011-08-22 06:34:21 51°13.704 2°55.79 7 31 18.2 101820 45
2011-08-22 06:34:26 51°13.707 2°55.783 6.1 78 18.2 101820 45
2011-08-22 06:34:30 51°13.71 2°55.777 4.5 38 18.2 101820 45
2011-08-22 06:34:36 51°13.716 2°55.768 5.4 80 18.2 101820 45
2011-08-22 06:34:41 51°13.72 2°55.76 5.9 32 18.2 101820 45
2011-08-22 06:34:46 51°13.724 2°55.752 4.4 80 18.2 101820 45
2011-08-22 06:34:50 51°13.727 2°55.746 4.7 33 18.2 101820 45
2011-08-22 06:34:56 51°13.731 2°55.737 6.1 81 18.2 101820 45
2011-08-22 06:35:01 51°13.735 2°55.73 5.4 40 18.2 101820 45
2011-08-22 06:35:06 51°13.739 2°55.723 5.5 77 18.2 101820 45
2011-08-22 06:35:10 51°13.742 2°55.718 6.7 35 18.1 101820 46
2011-08-22 06:35:16 51°13.746 2°55.71 6.2 75 18.1 101820 46
2011-08-22 06:35:21 51°13.75 2°55.704 5.4 33 18.1 101820 46
2011-08-22 06:35:26 51°13.754 2°55.698 5.9 80 18.1 101820 44
2011-08-22 06:35:30 51°13.757 2°55.693 5.8 40 18.1 101820 45
2011-08-22 06:35:36 51°13.762 2°55.686 5.5 76 18.1 101820 45
2011-08-22 06:35:41 51°13.768 2°55.68 6.4 31 18.1 101820 45
2011-08-22 06:35:46 51°13.773 2°55.675 4.8 81 18.1 101820 45
2011-08-22 06:35:50 51°13.778 2°55.671 5.6 32 18.1 101820 46
2011-08-22 06:35:56 51°13.785 2°55.664 5 76 18.1 101820 46
2011-08-22 06:36:01 51°13.792 2°55.66 4.6 32 18.1 101820 45
2011-08-22 06:36:06 51°13.799 2°55.655 3.7 75 18.1 101820 45
2011-08-22 06:36:10 51°13.804 2°55.651 3.9 37 18.1 101820 45
2011-08-22 06:36:16 51°13.813 2°55.646 3.9 76 18.2 101820 46
2011-08-22 06:36:21 51°13.821 2°55.643 4.4 38 18.3 101810 47
2011-08-22 06:36:26 51°13.828 2°55.639 4.2 75 18.3 101810 47
2011-08-22 06:36:30 51°13.835 2°55.636 5.1 40 18.3 101810 47
2011-08-22 06:36:36 51°13.844 2°55.632 4.1 79 18.4 101820 48
2011-08-22 06:36:41 51°13.852 2°55.629 4.9 38 18.5 101820 46
2011-08-22 06:36:46 51°13.86 2°55.626 4.6 75 18.5 101820 46
2011-08-22 06:36:50 51°13.867 2°55.625 5.5 39 18.6 101810 46
2011-08-22 06:36:56 51°13.876 2°55.623 5.3 78 18.6 101810 46
2011-08-22 06:37:01 51°13.884 2°55.622 6.5 33 18.6 101810 46
2011-08-22 06:37:06 51°13.891 2°55.622 7.2 82 18.7 101820 47
2011-08-22 06:37:10 51°13.897 2°55.622 6.1 35 18.8 101810 45
2011-08-22 06:37:16 51°13.905 2°55.623 6.8 79 18.8 101810 45
2011-08-22 06:37:21 51°13.912 2°55.623 6.7 33 18.8 101810 45
2011-08-22 06:37:26 51°13.918 2°55.624 6.3 76 18.7 101820 45
2011-08-22 06:37:30 51°13.923 2°55.625 7.3 34 18.7 101820 44
2011-08-22 06:37:36 51°13.93 2°55.627 6 79 18.7 101820 44
2011-08-22 06:37:41 51°13.936 2°55.629 6 37 18.7 101820 44
2011-08-22 06:37:46 51°13.941 2°55.632 6 81 18.7 101820 44
2011-08-22 06:37:50 51°13.945 2°55.634 4.9 39 18.7 101820 44
2011-08-22 06:37:56 51°13.951 2°55.637 6.1 82 18.7 101820 44
2011-08-22 06:38:01 51°13.956 2°55.639 5.4 44 18.7 101820 44
2011-08-22 06:38:06 51°13.96 2°55.642 5 44 18.6 101810 43
2011-08-22 06:38:10 51°13.963 2°55.644 4.8 42 18.6 101810 43
2011-08-22 06:38:16 51°13.967 2°55.647 4.7 42 18.6 101820 44
2011-08-22 06:38:21 51°13.97 2°55.649 4.8 38 18.6 101820 44
2011-08-22 06:38:25 51°13.972 2°55.65 3.6 37 18.6 101820 44
2011-08-22 06:38:30 51°13.974 2°55.652 4.1 39 18.6 101820 44
2011-08-22 06:38:35 51°13.975 2°55.653 4.6 37 18.6 101810 45
2011-08-22 06:38:40 51°13.976 2°55.653 3.8 30 18.6 101810 45
2011-08-22 06:38:45 51°13.976 2°55.652 3.8 25 18.6 101810 45
2011-08-22 06:38:50 51°13.975 2°55.651 3.9 28 18.5 101820 44
2011-08-22 06:38:54 51°13.975 2°55.65 3.4 22 18.5 101820 44
2011-08-22 06:38:59 51°13.975 2°55.647 3.1 21 18.5 101820 44
2011-08-22 06:39:04 51°13.974 2°55.644 3.9 16 18.5 101820 44
2011-08-22 06:39:09 51°13.974 2°55.64 4.4 15 18.5 101820 44
2011-08-22 06:39:14 51°13.974 2°55.635 5.2 7 18.5 101810 45
2011-08-22 06:39:18 51°13.973 2°55.63 4.5 4 18.5 101820 45
2011-08-22 06:39:23 51°13.974 2°55.624 5.3 1 18.5 101820 45
2011-08-22 06:39:28 51°13.974 2°55.618 4.4 358 18.4 101820 45
2011-08-22 06:39:33 51°13.976 2°55.611 4.9 354 18.4 101820 45
2011-08-22 06:39:38 51°13.978 2°55.604 5.3 356 18.4 101820 45
2011-08-22 06:39:43 51°13.98 2°55.597 6.2 347 18.4 101820 45
2011-08-22 06:39:48 51°13.983 2°55.59 5.2 345 18.4 101810 46
2011-08-22 06:39:53 51°13.988 2°55.583 6.2 285 18.4 101810 46
2011-08-22 06:39:58 51°13.992 2°55.576 5.6 344 18.4 101810 46
2011-08-22 06:40:02 51°13.996 2°55.569 7.1 282 18.4 101810 45
2011-08-22 06:40:07 51°14.002 2°55.561 6.9 343 18.4 101810 45
2011-08-22 06:40:12 51°14.008 2°55.553 8.4 280 18.4 101810 45
2011-08-22 06:40:18 51°14.017 2°55.542 7.1 339 18.4 101810 45
2011-08-22 06:40:22 51°14.023 2°55.535 8.1 278 18.3 101810 46
2011-08-22 06:40:27 51°14.031 2°55.526 7.8 343 18.3 101810 46
2011-08-22 06:40:32 51°14.04 2°55.516 10.1 280 18.3 101810 46
2011-08-22 06:40:38 51°14.051 2°55.505 8.4 339 18.3 101810 46
2011-08-22 06:40:42 51°14.059 2°55.497 10.2 284 18.3 101800 44
2011-08-22 06:40:47 51°14.069 2°55.487 9.6 342 18.3 101800 44
2011-08-22 06:40:52 51°14.079 2°55.477 9.5 286 18.3 101800 46
2011-08-22 06:40:58 51°14.092 2°55.465 8.6 336 18.3 101800 45
2011-08-22 06:41:02 51°14.101 2°55.457 8.7 280 18.3 101800 45
2011-08-22 06:41:07 51°14.112 2°55.446 11.4 338 18.3 101800 45
2011-08-22 06:41:12 51°14.124 2°55.436 7.8 285 18.2 101800 46
2011-08-22 06:41:18 51°14.138 2°55.423 12.3 338 18.2 101800 46
2011-08-22 06:41:22 51°14.147 2°55.415 7.9 286 18.2 101800 46
2011-08-22 06:41:27 51°14.159 2°55.404 4.8 337 18.2 101790 46
2011-08-22 06:41:32 51°14.171 2°55.394 7.8 280 18.2 101790 46
2011-08-22 06:41:38 51°14.185 2°55.381 10.5 339 18.2 101790 46
2011-08-22 06:41:42 51°14.195 2°55.372 10.9 282 18.2 101800 46
2011-08-22 06:41:47 51°14.207 2°55.361 8.6 339 18.2 101790 46
2011-08-22 06:41:52 51°14.219 2°55.35 4.4 280 18.2 101790 46
2011-08-22 06:41:57 51°14.23 2°55.338 9.7 337 18.1 101790 46
2011-08-22 06:42:02 51°14.242 2°55.327 9.5 280 18.1 101790 46
2011-08-22 06:42:07 51°14.254 2°55.316 10.4 338 18.2 101790 46
2011-08-22 06:42:12 51°14.266 2°55.304 12.8 281 18.2 101790 46
2011-08-22 06:42:17 51°14.278 2°55.291 10.4 340 18.2 101790 46
2011-08-22 06:42:22 51°14.289 2°55.28 8.1 282 18.1 101790 46
2011-08-22 06:42:27 51°14.301 2°55.268 11.3 340 18.1 101790 47
2011-08-22 06:42:32 51°14.313 2°55.256 8.7 285 18.1 101790 47
2011-08-22 06:42:38 51°14.328 2°55.241 10 340 18.1 101790 47
2011-08-22 06:42:42 51°14.337 2°55.232 9.1 279 18.1 101790 46
2011-08-22 06:42:47 51°14.349 2°55.22 7.2 341 18.1 101790 46
2011-08-22 06:42:52 51°14.361 2°55.208 9 280 18.1 101780 46
2011-08-22 06:42:57 51°14.373 2°55.196 11.1 341 18.1 101780 46
2011-08-22 06:43:02 51°14.385 2°55.184 10.7 282 18.1 101790 46
2011-08-22 06:43:07 51°14.397 2°55.172 8.3 340 18.1 101790 46
2011-08-22 06:43:12 51°14.41 2°55.16 10.5 280 18.1 101790 47
2011-08-22 06:43:17 51°14.422 2°55.148 8.4 340 18.1 101790 47
2011-08-22 06:43:22 51°14.435 2°55.135 11.2 281 18.1 101790 45
2011-08-22 06:43:27 51°14.448 2°55.122 11.5 339 18.1 101790 45
2011-08-22 06:43:32 51°14.46 2°55.11 10.8 283 18 101790 46
2011-08-22 06:43:37 51°14.473 2°55.096 9.1 340 18 101790 46
2011-08-22 06:43:42 51°14.486 2°55.083 13.2 281 18 101790 46
2011-08-22 06:43:47 51°14.499 2°55.069 14.2 340 18 101790 46
2011-08-22 06:43:52 51°14.512 2°55.056 12.9 283 18 101790 47
2011-08-22 06:43:57 51°14.526 2°55.041 12.3 339 18 101790 47
2011-08-22 06:44:02 51°14.54 2°55.028 11.3 285 18 101780 47
2011-08-22 06:44:07 51°14.554 2°55.014 11.5 338 18 101790 47
2011-08-22 06:44:12 51°14.568 2°55 13.9 286 18 101790 47
2011-08-22 06:44:17 51°14.582 2°54.986 10.4 339 18 101790 47
2011-08-22 06:44:22 51°14.597 2°54.972 10.5 277 18 101790 47
2011-08-22 06:44:27 51°14.611 2°54.958 10.3 340 18 101780 47
2011-08-22 06:44:32 51°14.626 2°54.942 14.2 278 18 101780 47
2011-08-22 06:44:37 51°14.64 2°54.927 9.5 342 18 101780 47
2011-08-22 06:44:42 51°14.655 2°54.912 11.8 285 18 101780 47
2011-08-22 06:44:47 51°14.669 2°54.896 14 339 18 101780 47
2011-08-22 06:44:52 51°14.683 2°54.88 11.1 282 18 101780 47
2011-08-22 06:44:57 51°14.697 2°54.864 14.9 341 18 101780 47
2011-08-22 06:45:02 51°14.712 2°54.849 10.8 280 18 101770 47
2011-08-22 06:45:07 51°14.727 2°54.834 13.2 340 18 101770 47
2011-08-22 06:45:12 51°14.741 2°54.82 12.2 281 18 101770 47
2011-08-22 06:45:17 51°14.755 2°54.804 14 340 18 101770 47
2011-08-22 06:45:22 51°14.77 2°54.789 11.2 281 18 101770 47
2011-08-22 06:45:27 51°14.784 2°54.773 14.3 341 18 101770 47
2011-08-22 06:45:32 51°14.798 2°54.757 14.7 281 18 101770 46
2011-08-22 06:45:37 51°14.812 2°54.741 10.7 342 17.9 101770 46
2011-08-22 06:45:42 51°14.826 2°54.725 13.7 277 17.9 101770 46
2011-08-22 06:45:47 51°14.839 2°54.709 12 341 17.9 101770 46
2011-08-22 06:45:52 51°14.853 2°54.693 10.4 284 17.9 101770 46
2011-08-22 06:45:57 51°14.867 2°54.677 5.8 341 17.9 101770 46
2011-08-22 06:46:02 51°14.881 2°54.661 5.7 281 17.9 101780 44
2011-08-22 06:46:07 51°14.895 2°54.644 14.1 341 17.9 101770 46
2011-08-22 06:46:12 51°14.909 2°54.628 10.6 286 17.9 101770 46
2011-08-22 06:46:17 51°14.923 2°54.612 13 341 17.9 101770 46
2011-08-22 06:46:22 51°14.936 2°54.595 12.6 286 17.8 101770 46
2011-08-22 06:46:27 51°14.95 2°54.579 14 341 17.8 101770 46
2011-08-22 06:46:32 51°14.963 2°54.562 15.2 286 17.8 101770 46
2011-08-22 06:46:37 51°14.977 2°54.545 14.3 341 17.8 101770 46
2011-08-22 06:46:42 51°14.991 2°54.529 11.8 281 17.9 101770 46
2011-08-22 06:46:47 51°15.004 2°54.512 10.5 342 17.9 101780 46
2011-08-22 06:46:52 51°15.017 2°54.495 11.1 280 17.9 101780 46
2011-08-22 06:46:57 51°15.03 2°54.478 10.1 343 17.9 101780 46
2011-08-22 06:47:02 51°15.043 2°54.46 10.1 277 17.9 101780 46
2011-08-22 06:47:06 51°15.054 2°54.445 10.2 342 17.9 101780 46
2011-08-22 06:47:12 51°15.069 2°54.423 5.6 285 17.9 101780 46
2011-08-22 06:47:17 51°15.081 2°54.405 13.9 342 17.9 101780 46
2011-08-22 06:47:22 51°15.094 2°54.387 9.3 282 17.9 101780 45
2011-08-22 06:47:27 51°15.107 2°54.369 10.6 343 17.9 101780 45
2011-08-22 06:47:32 51°15.12 2°54.351 12.3 342 17.9 101780 46
2011-08-22 06:47:37 51°15.133 2°54.334 13.8 342 17.9 101780 46
2011-08-22 06:47:42 51°15.146 2°54.317 13.9 284 17.8 101770 46
2011-08-22 06:47:47 51°15.159 2°54.3 14 344 17.8 101770 46
2011-08-22 06:47:52 51°15.173 2°54.282 8.6 278 17.8 101780 46
2011-08-22 06:47:57 51°15.186 2°54.265 14.6 341 17.8 101780 46
2011-08-22 06:48:02 51°15.199 2°54.249 14.1 280 17.8 101780 46
2011-08-22 06:48:07 51°15.213 2°54.232 8.9 341 17.8 101780 46
2011-08-22 06:48:11 51°15.224 2°54.218 14 285 17.8 101780 46
2011-08-22 06:48:17 51°15.24 2°54.198 5.7 340 17.8 101780 46
2011-08-22 06:48:22 51°15.253 2°54.181 13.7 278 17.8 101780 46
2011-08-22 06:48:26 51°15.264 2°54.167 11 341 17.8 101780 46
2011-08-22 06:48:32 51°15.28 2°54.147 14.6 341 17.8 101780 46
2011-08-22 06:48:37 51°15.293 2°54.129 14.3 343 17.8 101780 46
2011-08-22 06:48:42 51°15.306 2°54.112 10.2 278 17.9 101780 45
2011-08-22 06:48:47 51°15.32 2°54.095 14.6 341 17.9 101780 45
2011-08-22 06:48:51 51°15.331 2°54.081 13.3 284 17.9 101780 46
2011-08-22 06:48:57 51°15.347 2°54.06 9.3 343 17.9 101780 46
2011-08-22 06:49:02 51°15.36 2°54.043 10.1 279 17.9 101770 46
2011-08-22 06:49:07 51°15.373 2°54.025 12.5 344 17.9 101770 46
2011-08-22 06:49:12 51°15.387 2°54.008 11.6 279 17.9 101780 46
2011-08-22 06:49:17 51°15.4 2°53.991 12.5 342 17.9 101780 46
2011-08-22 06:49:22 51°15.414 2°53.974 11.1 281 17.9 101780 46
2011-08-22 06:49:27 51°15.429 2°53.958 12.1 341 17.9 101780 46
2011-08-22 06:49:32 51°15.443 2°53.942 11.3 341 17.9 101790 46
2011-08-22 06:49:37 51°15.457 2°53.926 13.7 341 17.9 101790 46
2011-08-22 06:49:42 51°15.471 2°53.91 12.3 280 17.9 101780 47
2011-08-22 06:49:46 51°15.483 2°53.898 5.4 341 17.9 101780 47
2011-08-22 06:49:52 51°15.5 2°53.88 13.1 277 17.9 101780 46
2011-08-22 06:49:57 51°15.514 2°53.864 12.4 340 17.9 101780 46
2011-08-22 06:50:02 51°15.528 2°53.848 9.4 278 17.9 101780 46
2011-08-22 06:50:07 51°15.542 2°53.832 9.7 341 17.9 101780 46
2011-08-22 06:50:12 51°15.556 2°53.815 11.7 285 17.9 101790 46
2011-08-22 06:50:17 51°15.569 2°53.797 15 341 17.9 101790 46
2011-08-22 06:50:22 51°15.583 2°53.78 13.4 285 17.9 101780 47
2011-08-22 06:50:27 51°15.596 2°53.763 10.4 342 17.9 101780 47
2011-08-22 06:50:32 51°15.609 2°53.745 13.5 342 17.9 101780 46
2011-08-22 06:50:37 51°15.622 2°53.727 10.1 343 17.9 101780 46
2011-08-22 06:50:42 51°15.635 2°53.708 9.7 284 17.9 101790 47
2011-08-22 06:50:47 51°15.648 2°53.689 11.7 342 17.9 101790 47
2011-08-22 06:50:52 51°15.66 2°53.67 12.7 281 17.9 101780 46
2011-08-22 06:50:57 51°15.673 2°53.652 9.8 343 17.9 101780 46
2011-08-22 06:51:02 51°15.686 2°53.634 10.1 282 17.8 101780 46
2011-08-22 06:51:07 51°15.699 2°53.615 11 340 17.8 101780 46
2011-08-22 06:51:12 51°15.712 2°53.597 12.9 281 17.8 101790 46
2011-08-22 06:51:17 51°15.726 2°53.582 9.6 341 17.8 101790 46
2011-08-22 06:51:22 51°15.74 2°53.566 12.9 278 17.9 101790 44
2011-08-22 06:51:27 51°15.755 2°53.552 12.3 341 17.9 101790 44
2011-08-22 06:51:32 51°15.77 2°53.537 15.1 341 17.9 101790 46
2011-08-22 06:51:37 51°15.785 2°53.524 14.8 341 17.9 101790 46
2011-08-22 06:51:42 51°15.801 2°53.511 10 277 17.8 101790 46
2011-08-22 06:51:47 51°15.816 2°53.498 9.7 339 17.8 101790 46
2011-08-22 06:51:52 51°15.832 2°53.487 10 284 17.8 101780 46
2011-08-22 06:51:57 51°15.848 2°53.475 13.8 338 17.8 101780 46
2011-08-22 06:52:02 51°15.864 2°53.463 9.5 277 17.8 101790 46
2011-08-22 06:52:06 51°15.876 2°53.454 11.4 338 17.8 101790 46
2011-08-22 06:52:12 51°15.896 2°53.442 11.4 283 17.8 101790 46
2011-08-22 06:52:17 51°15.912 2°53.432 14.6 338 17.8 101790 46
2011-08-22 06:52:22 51°15.929 2°53.422 5.3 280 17.8 101790 46
2011-08-22 06:52:26 51°15.941 2°53.413 10 342 17.8 101790 46
2011-08-22 06:52:32 51°15.961 2°53.399 10.8 339 17.8 101790 46
2011-08-22 06:52:37 51°15.977 2°53.388 13 339 17.8 101790 46
2011-08-22 06:52:42 51°15.993 2°53.377 12.8 281 17.8 101790 46
2011-08-22 06:52:47 51°16.009 2°53.366 10.3 340 17.8 101790 46
2011-08-22 06:52:52 51°16.025 2°53.355 10.1 279 17.8 101790 46
2011-08-22 06:52:57 51°16.041 2°53.344 10.1 340 17.8 101790 46
2011-08-22 06:53:02 51°16.058 2°53.333 12 282 17.8 101790 46
2011-08-22 06:53:07 51°16.074 2°53.322 11.7 340 17.8 101790 46
2011-08-22 06:53:12 51°16.089 2°53.311 14 282 17.8 101790 46
2011-08-22 06:53:17 51°16.106 2°53.299 12.9 340 17.8 101790 46
2011-08-22 06:53:22 51°16.122 2°53.288 9.9 279 17.8 101790 47
2011-08-22 06:53:27 51°16.137 2°53.276 10.4 340 17.8 101790 47
2011-08-22 06:53:32 51°16.153 2°53.264 10.1 340 17.8 101780 46
2011-08-22 06:53:37 51°16.169 2°53.252 9.9 340 17.8 101780 46
2011-08-22 06:53:42 51°16.185 2°53.24 12.1 282 17.8 101780 46
2011-08-22 06:53:47 51°16.2 2°53.228 13.7 341 17.8 101780 46
2011-08-22 06:53:52 51°16.216 2°53.216 11.8 276 17.8 101790 46
2011-08-22 06:53:57 51°16.231 2°53.203 11.8 343 17.8 101790 46
2011-08-22 06:54:02 51°16.247 2°53.189 9.2 280 17.8 101790 45
2011-08-22 06:54:07 51°16.262 2°53.176 10.4 342 17.8 101790 45
2011-08-22 06:54:12 51°16.277 2°53.163 13.3 279 17.8 101790 46
2011-08-22 06:54:17 51°16.292 2°53.15 8.7 342 17.8 101790 46
2011-08-22 06:54:22 51°16.307 2°53.135 13.9 281 17.8 101790 46
2011-08-22 06:54:27 51°16.322 2°53.121 12 341 17.8 101790 46
2011-08-22 06:54:32 51°16.337 2°53.108 12.7 279 17.8 101790 46
2011-08-22 06:54:37 51°16.352 2°53.095 12.5 340 17.8 101790 46
2011-08-22 06:54:42 51°16.368 2°53.082 15.3 280 17.8 101790 46
2011-08-22 06:54:47 51°16.383 2°53.069 12 340 17.8 101790 46
2011-08-22 06:54:52 51°16.399 2°53.056 10.1 277 17.8 101790 46
2011-08-22 06:54:57 51°16.415 2°53.044 10.1 341 17.8 101790 46
2011-08-22 06:55:02 51°16.43 2°53.032 9.8 279 17.8 101790 46
2011-08-22 06:55:07 51°16.446 2°53.021 10.3 337 17.8 101790 46
2011-08-22 06:55:11 51°16.459 2°53.012 13.7 278 17.8 101790 46
2011-08-22 06:55:17 51°16.479 2°52.998 10.3 340 17.8 101790 46
2011-08-22 06:55:22 51°16.495 2°52.987 9.9 281 17.8 101790 46
2011-08-22 06:55:27 51°16.511 2°52.975 9 341 17.8 101790 46
2011-08-22 06:55:32 51°16.527 2°52.963 11.9 341 17.8 101790 46
2011-08-22 06:55:37 51°16.542 2°52.951 12.3 342 17.8 101790 46
2011-08-22 06:55:42 51°16.558 2°52.938 14.1 281 17.8 101790 46
2011-08-22 06:55:47 51°16.573 2°52.924 13.6 342 17.8 101790 46
2011-08-22 06:55:52 51°16.588 2°52.91 13.4 284 17.8 101790 46
2011-08-22 06:55:57 51°16.603 2°52.897 13.3 342 17.8 101790 46
2011-08-22 06:56:02 51°16.618 2°52.883 8.8 280 17.8 101800 46
2011-08-22 06:56:07 51°16.633 2°52.87 4.9 340 17.8 101800 46
2011-08-22 06:56:12 51°16.648 2°52.856 9.6 280 17.8 101800 46
2011-08-22 06:56:17 51°16.663 2°52.842 10.3 340 17.8 101800 46
2011-08-22 06:56:22 51°16.679 2°52.829 10.4 282 17.8 101800 46
2011-08-22 06:56:26 51°16.691 2°52.818 12.2 340 17.8 101800 46
2011-08-22 06:56:32 51°16.709 2°52.803 11.4 285 17.8 101800 46
2011-08-22 06:56:37 51°16.724 2°52.789 9.3 340 17.8 101800 46
2011-08-22 06:56:42 51°16.74 2°52.776 10.1 280 17.8 101800 45
2011-08-22 06:56:47 51°16.755 2°52.763 9.5 340 17.8 101800 45
2011-08-22 06:56:52 51°16.77 2°52.749 13.4 281 17.9 101800 47
2011-08-22 06:56:57 51°16.785 2°52.736 14.1 339 17.9 101800 47
2011-08-22 06:57:02 51°16.8 2°52.723 13.1 282 17.9 101800 47
2011-08-22 06:57:07 51°16.815 2°52.71 9.6 339 17.9 101800 47
2011-08-22 06:57:12 51°16.83 2°52.696 13 280 17.9 101790 46
2011-08-22 06:57:17 51°16.845 2°52.683 13.5 340 17.9 101790 46
2011-08-22 06:57:22 51°16.86 2°52.669 14.1 285 17.9 101800 46
2011-08-22 06:57:27 51°16.875 2°52.655 10.1 341 17.9 101800 46
2011-08-22 06:57:32 51°16.89 2°52.642 13.9 339 17.9 101800 46
2011-08-22 06:57:37 51°16.906 2°52.629 12.4 339 17.9 101800 46
2011-08-22 06:57:42 51°16.921 2°52.615 10.5 279 17.8 101810 46
2011-08-22 06:57:47 51°16.936 2°52.602 12.2 340 17.8 101810 46
2011-08-22 06:57:52 51°16.952 2°52.59 13.4 279 17.8 101800 46
2011-08-22 06:57:57 51°16.967 2°52.577 13.1 340 17.8 101800 46
2011-08-22 06:58:02 51°16.983 2°52.565 13.7 285 17.8 101800 46
2011-08-22 06:58:07 51°16.999 2°52.553 10.6 341 17.8 101800 46
2011-08-22 06:58:12 51°17.014 2°52.541 14.4 285 17.8 101810 46
2011-08-22 06:58:17 51°17.03 2°52.529 8.5 340 17.8 101810 46
2011-08-22 06:58:22 51°17.046 2°52.517 9 278 17.8 101810 46
2011-08-22 06:58:27 51°17.062 2°52.506 9.1 340 17.8 101810 46
2011-08-22 06:58:32 51°17.078 2°52.494 11.9 280 17.8 101810 46
2011-08-22 06:58:37 51°17.094 2°52.483 9 340 17.8 101810 46
2011-08-22 06:58:42 51°17.11 2°52.472 11.6 281 17.8 101810 46
2011-08-22 06:58:46 51°17.123 2°52.463 12.7 338 17.8 101810 46
2011-08-22 06:58:52 51°17.142 2°52.45 10.7 280 17.8 101800 46
2011-08-22 06:58:57 51°17.158 2°52.439 9.8 340 17.8 101800 46
2011-08-22 06:59:02 51°17.174 2°52.427 9.5 279 17.8 101800 46
2011-08-22 06:59:07 51°17.19 2°52.416 11.7 341 17.8 101800 46
2011-08-22 06:59:12 51°17.205 2°52.403 11 280 17.8 101820 46
2011-08-22 06:59:17 51°17.221 2°52.391 12.8 341 17.8 101820 46
2011-08-22 06:59:22 51°17.237 2°52.379 10.3 279 17.8 101810 45
2011-08-22 06:59:27 51°17.253 2°52.366 8.6 341 17.8 101810 45
2011-08-22 06:59:32 51°17.268 2°52.353 9.7 340 17.8 101800 46
2011-08-22 06:59:37 51°17.283 2°52.338 9.9 340 17.8 101800 46
2011-08-22 06:59:42 51°17.298 2°52.324 11.5 282 17.8 101810 46
2011-08-22 06:59:47 51°17.312 2°52.309 11.6 342 17.8 101810 46
2011-08-22 06:59:52 51°17.327 2°52.294 13.4 278 17.8 101800 46
2011-08-22 06:59:57 51°17.341 2°52.279 9.5 342 17.8 101800 46
2011-08-22 07:00:02 51°17.356 2°52.264 10.6 279 17.8 101810 46
2011-08-22 07:00:07 51°17.371 2°52.25 9.5 340 17.8 101810 46
2011-08-22 07:00:12 51°17.386 2°52.236 13.8 284 17.8 101810 46
2011-08-22 07:00:17 51°17.402 2°52.223 11 340 17.8 101810 46
2011-08-22 07:00:22 51°17.417 2°52.209 11 285 17.8 101810 46
2011-08-22 07:00:27 51°17.433 2°52.196 9.6 340 17.8 101810 46
2011-08-22 07:00:32 51°17.448 2°52.183 9.4 340 17.8 101810 46
2011-08-22 07:00:37 51°17.463 2°52.169 10.8 341 17.8 101810 46
2011-08-22 07:00:42 51°17.477 2°52.153 5.6 280 17.8 101810 46
2011-08-22 07:00:47 51°17.491 2°52.137 4.4 343 17.8 101810 46
2011-08-22 07:00:52 51°17.505 2°52.12 11.1 285 17.8 101810 46
2011-08-22 07:00:57 51°17.518 2°52.103 8.2 344 17.8 101810 46
2011-08-22 07:01:02 51°17.531 2°52.084 9.3 278 17.8 101810 46
2011-08-22 07:01:06 51°17.54 2°52.068 8.8 345 17.8 101810 46
2011-08-22 07:01:11 51°17.552 2°52.049 12.7 281 17.8 101810 46
2011-08-22 07:01:17 51°17.566 2°52.024 11.9 345 17.8 101810 46
2011-08-22 07:01:22 51°17.578 2°52.004 10.1 280 17.8 101810 46
2011-08-22 07:01:26 51°17.587 2°51.987 13.7 345 17.8 101810 46
2011-08-22 07:01:32 51°17.6 2°51.961 10 345 17.8 101810 46
2011-08-22 07:01:37 51°17.61 2°51.939 12.1 347 17.8 101810 46
2011-08-22 07:01:42 51°17.621 2°51.918 8.9 282 17.8 101810 46
2011-08-22 07:01:47 51°17.631 2°51.896 12.7 347 17.8 101810 46
2011-08-22 07:01:51 51°17.64 2°51.879 10.1 279 17.8 101810 46
2011-08-22 07:01:57 51°17.652 2°51.852 9.4 347 17.8 101810 46
2011-08-22 07:02:02 51°17.663 2°51.831 8 279 17.7 101810 44
2011-08-22 07:02:07 51°17.673 2°51.809 11.1 346 17.7 101810 44
2011-08-22 07:02:12 51°17.684 2°51.787 9.4 283 17.7 101810 46
2011-08-22 07:02:17 51°17.695 2°51.765 11.4 344 17.7 101810 46
2011-08-22 07:02:22 51°17.707 2°51.744 8.2 280 17.7 101810 46
2011-08-22 07:02:27 51°17.718 2°51.723 14 344 17.7 101810 46
2011-08-22 07:02:32 51°17.73 2°51.703 9.1 279 17.7 101810 46
2011-08-22 07:02:37 51°17.741 2°51.682 8.5 344 17.7 101810 46
2011-08-22 07:02:42 51°17.753 2°51.661 12.7 283 17.7 101810 46
2011-08-22 07:02:47 51°17.764 2°51.641 9.7 346 17.7 101810 46
2011-08-22 07:02:52 51°17.776 2°51.62 9 280 17.7 101810 47
2011-08-22 07:02:57 51°17.788 2°51.6 11 346 17.7 101810 47
2011-08-22 07:03:02 51°17.799 2°51.579 11.6 281 17.7 101810 46
2011-08-22 07:03:07 51°17.811 2°51.56 10 345 17.7 101810 46
2011-08-22 07:03:12 51°17.824 2°51.54 9.8 278 17.7 101810 47
2011-08-22 07:03:17 51°17.836 2°51.52 9.9 344 17.7 101810 47
2011-08-22 07:03:22 51°17.848 2°51.501 9.3 280 17.7 101810 46
2011-08-22 07:03:27 51°17.861 2°51.482 11.1 346 17.7 101810 46
2011-08-22 07:03:31 51°17.872 2°51.468 9.9 346 17.6 101810 46
2011-08-22 07:03:37 51°17.887 2°51.446 11.6 343 17.6 101810 46
2011-08-22 07:03:42 51°17.901 2°51.428 11 283 17.6 101810 47
2011-08-22 07:03:47 51°17.914 2°51.41 9.3 344 17.6 101810 47
2011-08-22 07:03:52 51°17.927 2°51.391 10.3 282 17.6 101810 46
2011-08-22 07:03:57 51°17.94 2°51.373 10.3 344 17.6 101810 46
2011-08-22 07:04:02 51°17.952 2°51.355 9.6 280 17.6 101820 46
2011-08-22 07:04:07 51°17.965 2°51.336 9.9 344 17.6 101820 46
2011-08-22 07:04:12 51°17.978 2°51.317 11.7 281 17.6 101800 47
2011-08-22 07:04:17 51°17.99 2°51.298 9.1 345 17.6 101800 47
2011-08-22 07:04:22 51°18.003 2°51.279 10.2 278 17.7 101810 47
2011-08-22 07:04:27 51°18.015 2°51.26 9.1 346 17.7 101810 47
2011-08-22 07:04:32 51°18.027 2°51.24 8.8 345 17.6 101810 46
2011-08-22 07:04:37 51°18.039 2°51.221 9.8 346 17.6 101810 46
2011-08-22 07:04:42 51°18.051 2°51.201 9.7 281 17.6 101810 45
2011-08-22 07:04:47 51°18.063 2°51.181 9.4 346 17.6 101810 45
2011-08-22 07:04:52 51°18.075 2°51.161 10.4 279 17.6 101810 46
2011-08-22 07:04:57 51°18.086 2°51.14 7.7 346 17.6 101810 46
2011-08-22 07:05:02 51°18.097 2°51.12 9.5 276 17.6 101810 46
2011-08-22 07:05:07 51°18.108 2°51.099 9.9 346 17.6 101810 46
2011-08-22 07:05:12 51°18.119 2°51.078 9 346 17.6 101820 47
2011-08-22 07:05:17 51°18.13 2°51.057 8.1 347 17.6 101820 47
2011-08-22 07:05:22 51°18.141 2°51.036 9.7 282 17.6 101810 47
2011-08-22 07:05:27 51°18.152 2°51.015 8.8 346 17.6 101810 47
2011-08-22 07:05:32 51°18.163 2°50.994 11.4 347 17.6 101820 47
2011-08-22 07:05:37 51°18.174 2°50.973 8.6 346 17.6 101820 47
2011-08-22 07:05:42 51°18.185 2°50.953 11.8 280 17.6 101820 46
2011-08-22 07:05:47 51°18.197 2°50.932 12.4 347 17.6 101820 46
2011-08-22 07:05:51 51°18.206 2°50.916 12 346 17.5 101820 47
2011-08-22 07:05:57 51°18.22 2°50.891 12 345 17.5 101820 47
2011-08-22 07:06:02 51°18.231 2°50.871 13.3 282 17.6 101820 47
2011-08-22 07:06:07 51°18.243 2°50.851 11.6 346 17.6 101820 47
2011-08-22 07:06:12 51°18.255 2°50.832 8.8 281 17.5 101810 47
2011-08-22 07:06:17 51°18.268 2°50.813 9.5 345 17.5 101810 47
2011-08-22 07:06:22 51°18.28 2°50.793 10.3 345 17.5 101820 46
2011-08-22 07:06:27 51°18.293 2°50.775 12.2 345 17.5 101820 46
2011-08-22 07:06:32 51°18.305 2°50.756 12.6 345 17.5 101820 47
2011-08-22 07:06:37 51°18.318 2°50.737 10.8 344 17.5 101820 47
2011-08-22 07:06:42 51°18.33 2°50.717 13.6 281 17.6 101820 46
2011-08-22 07:06:47 51°18.342 2°50.698 9.4 347 17.6 101820 46
2011-08-22 07:06:51 51°18.352 2°50.682 8.9 281 17.6 101810 47
2011-08-22 07:06:57 51°18.367 2°50.659 9.6 347 17.6 101810 47
2011-08-22 07:07:02 51°18.379 2°50.639 8.4 281 17.6 101810 46
2011-08-22 07:07:07 51°18.39 2°50.619 4.8 347 17.6 101810 46
2011-08-22 07:07:12 51°18.402 2°50.599 11.9 347 17.5 101810 46
2011-08-22 07:07:17 51°18.413 2°50.578 8.2 347 17.5 101810 46
2011-08-22 07:07:22 51°18.425 2°50.558 8.8 282 17.5 101810 45
2011-08-22 07:07:26 51°18.434 2°50.541 11.4 348 17.5 101810 45
2011-08-22 07:07:32 51°18.447 2°50.516 10.5 348 17.5 101820 46
2011-08-22 07:07:37 51°18.458 2°50.495 13.3 349 17.5 101820 46
2011-08-22 07:07:42 51°18.47 2°50.474 9.2 281 17.5 101810 46
2011-08-22 07:07:46 51°18.478 2°50.457 8 349 17.5 101810 46
2011-08-22 07:07:52 51°18.492 2°50.432 4.8 278 17.5 101820 46
2011-08-22 07:07:57 51°18.503 2°50.411 9.1 349 17.5 101820 46
2011-08-22 07:08:02 51°18.514 2°50.39 12.8 279 17.5 101820 46
2011-08-22 07:08:07 51°18.526 2°50.369 9.5 349 17.5 101820 46
2011-08-22 07:08:11 51°18.536 2°50.353 10.5 284 17.5 101820 45
2011-08-22 07:08:17 51°18.55 2°50.329 11.1 346 17.5 101820 45
2011-08-22 07:08:22 51°18.562 2°50.31 8.2 278 17.5 101820 46
2011-08-22 07:08:27 51°18.575 2°50.291 13 348 17.5 101820 46
2011-08-22 07:08:31 51°18.585 2°50.275 9.4 347 17.4 101820 46
2011-08-22 07:08:37 51°18.6 2°50.252 9.9 347 17.4 101820 46
2011-08-22 07:08:42 51°18.612 2°50.232 12.7 280 17.5 101820 46
2011-08-22 07:08:46 51°18.622 2°50.217 11.8 347 17.5 101820 46
2011-08-22 07:08:52 51°18.637 2°50.194 8.2 279 17.4 101820 46
2011-08-22 07:08:57 51°18.649 2°50.175 10.5 349 17.4 101820 46
2011-08-22 07:09:02 51°18.661 2°50.155 9 276 17.4 101820 45
2011-08-22 07:09:07 51°18.674 2°50.135 8 345 17.4 101820 45
2011-08-22 07:09:12 51°18.685 2°50.115 8.6 280 17.4 101810 45
2011-08-22 07:09:17 51°18.697 2°50.095 8.8 347 17.4 101810 45
2011-08-22 07:09:22 51°18.709 2°50.075 11.7 348 17.4 101820 45
2011-08-22 07:09:27 51°18.72 2°50.054 10.7 346 17.4 101820 45
2011-08-22 07:09:32 51°18.732 2°50.034 8.9 346 17.5 101810 46
2011-08-22 07:09:37 51°18.743 2°50.013 9.7 349 17.5 101810 46
2011-08-22 07:09:42 51°18.755 2°49.992 8.8 279 17.5 101810 45
2011-08-22 07:09:47 51°18.766 2°49.972 9 347 17.5 101810 45
2011-08-22 07:09:52 51°18.777 2°49.951 11.7 347 17.5 101810 46
2011-08-22 07:09:57 51°18.789 2°49.931 12.1 348 17.5 101810 46
2011-08-22 07:10:02 51°18.801 2°49.911 11.1 348 17.5 101810 43
2011-08-22 07:10:07 51°18.814 2°49.892 8.5 349 17.5 101810 43
2011-08-22 07:10:12 51°18.827 2°49.873 11 347 17.5 101810 44
2011-08-22 07:10:17 51°18.84 2°49.855 9.8 347 17.5 101810 44
2011-08-22 07:10:22 51°18.853 2°49.836 9.5 284 17.5 101810 45
2011-08-22 07:10:26 51°18.863 2°49.821 9.1 347 17.5 101810 45
2011-08-22 07:10:32 51°18.879 2°49.8 10.7 347 17.5 101820 44
2011-08-22 07:10:37 51°18.892 2°49.782 9.5 345 17.5 101820 44
2011-08-22 07:10:42 51°18.906 2°49.762 9.5 278 17.6 101810 45
2011-08-22 07:10:47 51°18.919 2°49.745 9 347 17.6 101810 45
2011-08-22 07:10:51 51°18.929 2°49.731 11.1 344 17.5 101810 45
2011-08-22 07:10:57 51°18.945 2°49.709 11.3 346 17.5 101810 45
2011-08-22 07:11:02 51°18.958 2°49.691 13.1 279 17.6 101810 46
2011-08-22 07:11:07 51°18.971 2°49.672 12.4 347 17.6 101810 46
2011-08-22 07:11:12 51°18.983 2°49.653 9.1 280 17.6 101810 46
2011-08-22 07:11:17 51°18.996 2°49.634 8.4 347 17.6 101810 46
2011-08-22 07:11:22 51°19.008 2°49.614 12.1 348 17.6 101810 46
2011-08-22 07:11:27 51°19.02 2°49.595 10 349 17.6 101810 46
2011-08-22 07:11:32 51°19.032 2°49.575 9.4 350 17.6 101810 45
2011-08-22 07:11:37 51°19.043 2°49.554 10.9 349 17.6 101810 45
2011-08-22 07:11:42 51°19.054 2°49.533 12.4 282 17.6 101810 45
2011-08-22 07:11:47 51°19.065 2°49.512 12.5 347 17.6 101810 45
2011-08-22 07:11:52 51°19.077 2°49.491 8.5 283 17.6 101810 45
2011-08-22 07:11:57 51°19.088 2°49.471 12.7 347 17.6 101810 45
2011-08-22 07:12:02 51°19.1 2°49.45 12 284 17.6 101820 45
2011-08-22 07:12:07 51°19.111 2°49.43 10.8 347 17.6 101820 45
2011-08-22 07:12:12 51°19.123 2°49.41 9.6 278 17.6 101810 46
2011-08-22 07:12:17 51°19.135 2°49.39 9.1 346 17.6 101810 46
2011-08-22 07:12:22 51°19.148 2°49.371 9.1 280 17.6 101810 45
2011-08-22 07:12:27 51°19.16 2°49.352 9.9 347 17.6 101810 45
2011-08-22 07:12:32 51°19.172 2°49.333 12.5 277 17.6 101820 46
2011-08-22 07:12:37 51°19.185 2°49.314 9.1 346 17.6 101820 46
2011-08-22 07:12:42 51°19.197 2°49.295 10.2 281 17.6 101810 44
2011-08-22 07:12:47 51°19.21 2°49.276 8.9 347 17.6 101810 44
2011-08-22 07:12:52 51°19.222 2°49.257 8.5 279 17.6 101810 45
2011-08-22 07:12:57 51°19.235 2°49.238 8 347 17.6 101810 45
2011-08-22 07:13:02 51°19.247 2°49.219 8.6 349 17.6 101810 45
2011-08-22 07:13:07 51°19.259 2°49.2 12.2 347 17.6 101810 45
2011-08-22 07:13:12 51°19.271 2°49.18 8.8 278 17.6 101810 46
2011-08-22 07:13:17 51°19.283 2°49.161 11.8 348 17.6 101810 46
2011-08-22 07:13:22 51°19.294 2°49.14 8.4 348 17.6 101800 45
2011-08-22 07:13:27 51°19.305 2°49.12 9.4 346 17.6 101800 45
2011-08-22 07:13:32 51°19.316 2°49.099 9.5 348 17.6 101810 46
2011-08-22 07:13:37 51°19.328 2°49.079 8.9 345 17.6 101810 46
2011-08-22 07:13:42 51°19.339 2°49.058 10.3 279 17.6 101810 46
2011-08-22 07:13:47 51°19.35 2°49.038 8.8 346 17.6 101810 46
2011-08-22 07:13:52 51°19.362 2°49.018 8.3 279 17.6 101810 46
2011-08-22 07:13:57 51°19.373 2°48.998 10.5 347 17.6 101810 46
2011-08-22 07:14:02 51°19.385 2°48.978 8.3 347 17.6 101810 46
2011-08-22 07:14:06 51°19.395 2°48.962 8.8 348 17.6 101810 46
2011-08-22 07:14:12 51°19.409 2°48.938 12.2 349 17.6 101800 46
2011-08-22 07:14:17 51°19.421 2°48.919 8.8 348 17.6 101800 46
2011-08-22 07:14:22 51°19.433 2°48.9 12.7 283 17.6 101800 46
2011-08-22 07:14:26 51°19.443 2°48.885 9.4 346 17.6 101800 46
2011-08-22 07:14:32 51°19.458 2°48.862 10.2 346 17.6 101800 46
2011-08-22 07:14:37 51°19.471 2°48.844 9.3 346 17.6 101800 46
2011-08-22 07:14:42 51°19.484 2°48.825 10.6 346 17.6 101800 46
2011-08-22 07:14:47 51°19.496 2°48.806 8.5 346 17.6 101800 46
2011-08-22 07:14:52 51°19.509 2°48.787 12.3 346 17.6 101800 46
2011-08-22 07:14:57 51°19.521 2°48.768 10.6 345 17.6 101800 46
2011-08-22 07:15:02 51°19.534 2°48.749 12.5 280 17.6 101800 46
2011-08-22 07:15:07 51°19.546 2°48.729 9 347 17.6 101800 46
2011-08-22 07:15:11 51°19.555 2°48.714 11.4 281 17.6 101810 46
2011-08-22 07:15:17 51°19.569 2°48.689 10.5 347 17.6 101810 46
2011-08-22 07:15:22 51°19.58 2°48.668 11.9 347 17.6 101810 45
2011-08-22 07:15:26 51°19.589 2°48.652 7.9 348 17.6 101810 45
2011-08-22 07:15:32 51°19.602 2°48.627 8.3 348 17.6 101800 46
2011-08-22 07:15:37 51°19.613 2°48.606 8.4 348 17.6 101800 46
2011-08-22 07:15:42 51°19.625 2°48.585 7.8 277 17.6 101800 46
2011-08-22 07:15:47 51°19.636 2°48.565 12.2 349 17.6 101800 46
2011-08-22 07:15:52 51°19.648 2°48.544 8.4 280 17.6 101800 46
2011-08-22 07:15:57 51°19.659 2°48.524 8.3 346 17.6 101800 46
2011-08-22 07:16:02 51°19.671 2°48.503 9.7 282 17.6 101800 46
2011-08-22 07:16:07 51°19.683 2°48.484 11.2 344 17.6 101800 46
2011-08-22 07:16:12 51°19.696 2°48.464 8.2 280 17.6 101810 46
2011-08-22 07:16:17 51°19.708 2°48.445 10.8 345 17.6 101810 46
2011-08-22 07:16:22 51°19.721 2°48.426 8.3 281 17.6 101810 46
2011-08-22 07:16:27 51°19.734 2°48.406 8.2 344 17.6 101810 46
2011-08-22 07:16:32 51°19.747 2°48.387 12.9 345 17.6 101800 47
2011-08-22 07:16:37 51°19.76 2°48.368 9.1 346 17.6 101800 47
2011-08-22 07:16:42 51°19.773 2°48.349 9.1 279 17.6 101800 47
2011-08-22 07:16:47 51°19.785 2°48.329 12.4 345 17.6 101800 47
2011-08-22 07:16:52 51°19.797 2°48.309 9.6 279 17.6 101800 47
2011-08-22 07:16:57 51°19.809 2°48.289 13 346 17.6 101800 47
2011-08-22 07:17:02 51°19.821 2°48.268 8.6 278 17.6 101790 47
2011-08-22 07:17:07 51°19.833 2°48.247 8.6 347 17.6 101790 47
2011-08-22 07:17:12 51°19.844 2°48.226 11 280 17.6 101800 47
2011-08-22 07:17:17 51°19.855 2°48.205 8.7 347 17.6 101800 47
2011-08-22 07:17:22 51°19.867 2°48.184 7.5 279 17.6 101800 47
2011-08-22 07:17:27 51°19.878 2°48.163 10.1 348 17.6 101800 47
2011-08-22 07:17:32 51°19.89 2°48.143 12.1 348 17.6 101790 47
2011-08-22 07:17:37 51°19.902 2°48.122 4.9 347 17.6 101790 47
2011-08-22 07:17:42 51°19.914 2°48.102 9.8 348 17.5 101800 46
2011-08-22 07:17:47 51°19.926 2°48.081 10.2 348 17.5 101800 46
2011-08-22 07:17:52 51°19.938 2°48.061 4.5 280 17.6 101800 46
2011-08-22 07:17:57 51°19.95 2°48.041 13.2 347 17.6 101800 46
2011-08-22 07:18:02 51°19.963 2°48.02 9.6 282 17.6 101800 45
2011-08-22 07:18:07 51°19.974 2°48 12.3 348 17.6 101800 45
2011-08-22 07:18:12 51°19.986 2°47.979 9.1 277 17.5 101790 47
2011-08-22 07:18:17 51°19.998 2°47.959 9.2 346 17.5 101790 47
2011-08-22 07:18:22 51°20.01 2°47.939 11.3 281 17.6 101800 47
2011-08-22 07:18:27 51°20.022 2°47.918 8.4 345 17.6 101800 47
2011-08-22 07:18:32 51°20.035 2°47.898 11.4 346 17.5 101790 47
2011-08-22 07:18:37 51°20.047 2°47.878 8.7 345 17.5 101790 47
2011-08-22 07:18:42 51°20.06 2°47.859 10.9 281 17.5 101800 47
2011-08-22 07:18:47 51°20.073 2°47.84 9.6 346 17.5 101800 47
2011-08-22 07:18:52 51°20.086 2°47.821 10.4 279 17.5 101800 47
2011-08-22 07:18:57 51°20.099 2°47.802 9.2 342 17.5 101800 47
2011-08-22 07:19:02 51°20.112 2°47.783 11.3 280 17.6 101800 47
2011-08-22 07:19:07 51°20.125 2°47.764 4.8 343 17.6 101800 47
2011-08-22 07:19:12 51°20.139 2°47.745 8.2 283 17.6 101800 47
2011-08-22 07:19:17 51°20.152 2°47.726 11.9 343 17.6 101800 47
2011-08-22 07:19:22 51°20.165 2°47.707 9.9 281 17.6 101800 47
2011-08-22 07:19:27 51°20.178 2°47.688 9.7 343 17.6 101800 47
2011-08-22 07:19:31 51°20.188 2°47.673 8.9 342 17.6 101800 47
2011-08-22 07:19:37 51°20.203 2°47.65 11.1 344 17.6 101800 47
2011-08-22 07:19:42 51°20.216 2°47.63 10.5 279 17.6 101790 47
2011-08-22 07:19:46 51°20.225 2°47.614 8.8 345 17.6 101790 47
2011-08-22 07:19:52 51°20.239 2°47.589 9.3 283 17.6 101790 48
2011-08-22 07:19:57 51°20.25 2°47.568 8.4 344 17.6 101790 48
2011-08-22 07:20:02 51°20.262 2°47.547 8.5 280 17.6 101800 47
2011-08-22 07:20:07 51°20.273 2°47.526 9.5 343 17.6 101800 47
2011-08-22 07:20:11 51°20.283 2°47.509 11.8 284 17.6 101800 47
2011-08-22 07:20:17 51°20.297 2°47.486 9.1 342 17.6 101800 47
2011-08-22 07:20:22 51°20.309 2°47.466 10.1 284 17.6 101790 47
2011-08-22 07:20:27 51°20.322 2°47.446 12.9 343 17.6 101790 47
2011-08-22 07:20:32 51°20.334 2°47.427 8.7 343 17.6 101800 47
2011-08-22 07:20:37 51°20.347 2°47.408 8.8 343 17.6 101800 47
2011-08-22 07:20:42 51°20.359 2°47.388 9.1 279 17.6 101800 45
2011-08-22 07:20:47 51°20.372 2°47.369 11 344 17.6 101800 45
2011-08-22 07:20:52 51°20.384 2°47.349 10 283 17.6 101800 47
2011-08-22 07:20:57 51°20.396 2°47.329 8.8 344 17.6 101800 47
2011-08-22 07:21:02 51°20.408 2°47.309 4.8 279 17.6 101800 47
2011-08-22 07:21:07 51°20.42 2°47.289 9.5 344 17.6 101800 47
2011-08-22 07:21:12 51°20.432 2°47.269 7.7 279 17.6 101800 47
2011-08-22 07:21:17 51°20.443 2°47.249 12.1 343 17.6 101800 47
2011-08-22 07:21:22 51°20.455 2°47.228 11.6 344 17.5 101800 47
2011-08-22 07:21:26 51°20.465 2°47.212 8.4 343 17.5 101800 47
2011-08-22 07:21:32 51°20.479 2°47.187 8.9 343 17.5 101800 47
2011-08-22 07:21:37 51°20.491 2°47.166 7.8 343 17.5 101800 47
2011-08-22 07:21:42 51°20.502 2°47.145 11.2 279 17.5 101800 47
2011-08-22 07:21:47 51°20.514 2°47.124 12.1 343 17.5 101800 47
2011-08-22 07:21:52 51°20.525 2°47.103 12.6 285 17.5 101800 48
2011-08-22 07:21:57 51°20.536 2°47.082 11.1 344 17.5 101800 48
2011-08-22 07:22:02 51°20.548 2°47.061 8.7 279 17.5 101800 47
2011-08-22 07:22:07 51°20.559 2°47.04 8.1 343 17.5 101800 47
2011-08-22 07:22:12 51°20.571 2°47.019 10.9 283 17.5 101800 47
2011-08-22 07:22:17 51°20.583 2°46.998 9.6 344 17.5 101800 47
2011-08-22 07:22:22 51°20.594 2°46.977 8.1 278 17.5 101800 47
2011-08-22 07:22:27 51°20.606 2°46.956 8.9 345 17.5 101800 47
2011-08-22 07:22:32 51°20.618 2°46.936 11.9 345 17.5 101800 47
2011-08-22 07:22:37 51°20.63 2°46.916 12 345 17.5 101800 47
2011-08-22 07:22:42 51°20.642 2°46.895 7.7 277 17.5 101810 47
2011-08-22 07:22:47 51°20.654 2°46.875 8.8 343 17.5 101810 47
2011-08-22 07:22:52 51°20.666 2°46.855 12 283 17.5 101810 47
2011-08-22 07:22:57 51°20.678 2°46.834 11.4 345 17.5 101810 47
2011-08-22 07:23:02 51°20.69 2°46.814 12.4 280 17.5 101800 47
2011-08-22 07:23:07 51°20.703 2°46.794 8.7 341 17.5 101800 47
2011-08-22 07:23:12 51°20.715 2°46.775 12.1 278 17.5 101800 48
2011-08-22 07:23:17 51°20.728 2°46.756 5 343 17.5 101800 48
2011-08-22 07:23:22 51°20.741 2°46.737 4.8 281 17.5 101810 46
2011-08-22 07:23:26 51°20.751 2°46.722 12.2 343 17.5 101810 46
2011-08-22 07:23:32 51°20.767 2°46.7 8.9 341 17.5 101810 47
2011-08-22 07:23:37 51°20.78 2°46.682 9.3 342 17.5 101810 47
2011-08-22 07:23:42 51°20.793 2°46.663 11.3 283 17.5 101800 47
2011-08-22 07:23:46 51°20.804 2°46.648 9.2 343 17.5 101800 47
2011-08-22 07:23:52 51°20.819 2°46.625 7.9 280 17.5 101800 47
2011-08-22 07:23:57 51°20.832 2°46.606 9.8 341 17.5 101800 47
2011-08-22 07:24:02 51°20.844 2°46.587 9.3 278 17.5 101800 47
2011-08-22 07:24:07 51°20.857 2°46.568 7.9 344 17.5 101800 47
2011-08-22 07:24:11 51°20.867 2°46.553 11.4 281 17.5 101800 47
2011-08-22 07:24:17 51°20.882 2°46.53 9.4 343 17.5 101800 47
2011-08-22 07:24:22 51°20.895 2°46.511 9.6 345 17.5 101800 47
2011-08-22 07:24:27 51°20.907 2°46.491 9.4 344 17.5 101800 47
2011-08-22 07:24:32 51°20.919 2°46.471 12.8 345 17.5 101800 47
2011-08-22 07:24:37 51°20.931 2°46.452 11.9 346 17.5 101800 47
2011-08-22 07:24:42 51°20.943 2°46.432 11.1 281 17.5 101800 47
2011-08-22 07:24:47 51°20.955 2°46.413 9 348 17.5 101800 47
2011-08-22 07:24:52 51°20.968 2°46.393 8.7 278 17.5 101800 47
2011-08-22 07:24:57 51°20.98 2°46.374 12.7 345 17.5 101800 47
2011-08-22 07:25:02 51°20.993 2°46.355 13.1 283 17.5 101800 47
2011-08-22 07:25:07 51°21.005 2°46.336 9.8 346 17.5 101800 47
2011-08-22 07:25:12 51°21.018 2°46.318 12.2 279 17.5 101800 47
2011-08-22 07:25:17 51°21.031 2°46.299 9.9 344 17.5 101800 47
2011-08-22 07:25:22 51°21.044 2°46.281 8.7 281 17.5 101800 48
2011-08-22 07:25:27 51°21.056 2°46.261 9.8 345 17.5 101800 48
2011-08-22 07:25:32 51°21.068 2°46.242 11.3 347 17.5 101800 47
2011-08-22 07:25:37 51°21.08 2°46.221 4.6 347 17.5 101800 47
2011-08-22 07:25:42 51°21.091 2°46.201 10 279 17.5 101800 47
2011-08-22 07:25:47 51°21.102 2°46.18 11.4 349 17.5 101800 47
2011-08-22 07:25:52 51°21.112 2°46.158 8.4 347 17.5 101790 47
2011-08-22 07:25:57 51°21.123 2°46.137 9.7 346 17.5 101790 47
2011-08-22 07:26:02 51°21.133 2°46.116 12.3 278 17.4 101800 45
2011-08-22 07:26:07 51°21.144 2°46.095 10.1 345 17.4 101800 45
2011-08-22 07:26:12 51°21.156 2°46.074 11 347 17.4 101800 46
2011-08-22 07:26:17 51°21.167 2°46.053 8.9 347 17.4 101800 46
2011-08-22 07:26:22 51°21.178 2°46.032 10.6 281 17.4 101800 47
2011-08-22 07:26:27 51°21.19 2°46.012 9.9 346 17.4 101800 47
2011-08-22 07:26:32 51°21.201 2°45.992 9.3 346 17.4 101800 47
2011-08-22 07:26:37 51°21.213 2°45.972 10.3 346 17.4 101800 47
2011-08-22 07:26:42 51°21.225 2°45.952 8.6 281 17.4 101800 47
2011-08-22 07:26:47 51°21.238 2°45.933 11.8 346 17.4 101800 47
2011-08-22 07:26:52 51°21.25 2°45.913 11.7 279 17.4 101800 46
2011-08-22 07:26:57 51°21.262 2°45.893 7.8 346 17.4 101800 46
2011-08-22 07:27:02 51°21.274 2°45.873 12.2 347 17.4 101800 47
2011-08-22 07:27:07 51°21.285 2°45.853 8.4 345 17.4 101800 47
2011-08-22 07:27:12 51°21.297 2°45.833 9.9 281 17.4 101800 47
2011-08-22 07:27:17 51°21.308 2°45.812 10.3 347 17.4 101800 47
2011-08-22 07:27:22 51°21.319 2°45.79 9.4 347 17.4 101790 47
2011-08-22 07:27:27 51°21.33 2°45.769 9 348 17.4 101790 47
2011-08-22 07:27:32 51°21.34 2°45.748 8.1 347 17.4 101800 47
2011-08-22 07:27:37 51°21.351 2°45.729 8.9 350 17.4 101800 47
2011-08-22 07:27:42 51°21.361 2°45.71 9 280 17.4 101800 47
2011-08-22 07:27:47 51°21.371 2°45.691 9.7 350 17.4 101800 47
2011-08-22 07:27:52 51°21.381 2°45.674 10.2 280 17.4 101800 47
2011-08-22 07:27:57 51°21.39 2°45.658 9.3 349 17.4 101800 47
2011-08-22 07:28:02 51°21.399 2°45.643 7 280 17.4 101800 47
2011-08-22 07:28:07 51°21.408 2°45.628 7.4 347 17.4 101800 47
2011-08-22 07:28:12 51°21.417 2°45.614 7.1 351 17.5 101800 47
2011-08-22 07:28:17 51°21.426 2°45.6 7.3 350 17.5 101800 47
2011-08-22 07:28:22 51°21.434 2°45.587 7.9 278 17.4 101810 47
2011-08-22 07:28:27 51°21.442 2°45.574 7.6 346 17.4 101810 47
2011-08-22 07:28:32 51°21.45 2°45.562 7.7 351 17.4 101810 47
2011-08-22 07:28:37 51°21.458 2°45.549 7.6 351 17.4 101810 47
2011-08-22 07:28:42 51°21.466 2°45.537 9.9 351 17.4 101810 46
2011-08-22 07:28:47 51°21.474 2°45.525 10.9 353 17.4 101810 46
2011-08-22 07:28:52 51°21.481 2°45.512 9.2 354 17.4 101810 47
2011-08-22 07:28:57 51°21.488 2°45.5 7.6 354 17.4 101810 47
2011-08-22 07:29:02 51°21.495 2°45.488 7.5 355 17.4 101800 47
2011-08-22 07:29:07 51°21.502 2°45.475 8.8 356 17.4 101800 47
2011-08-22 07:29:11 51°21.507 2°45.465 6.7 357 17.4 101800 46
2011-08-22 07:29:17 51°21.515 2°45.45 7.6 357 17.4 101800 46
2011-08-22 07:29:22 51°21.521 2°45.437 6.2 358 17.4 101810 47
2011-08-22 07:29:27 51°21.528 2°45.424 6.2 356 17.4 101810 47
2011-08-22 07:29:32 51°21.534 2°45.411 5.6 355 17.4 101810 47
2011-08-22 07:29:37 51°21.54 2°45.398 6.4 355 17.4 101810 47
2011-08-22 07:29:42 51°21.545 2°45.385 9.8 355 17.3 101820 47
2011-08-22 07:29:47 51°21.551 2°45.372 9.7 356 17.3 101820 47
2011-08-22 07:29:52 51°21.557 2°45.359 6.2 355 17.4 101810 47
2011-08-22 07:29:57 51°21.562 2°45.346 6.6 355 17.4 101810 47
2011-08-22 07:30:02 51°21.568 2°45.333 8.8 354 17.4 101810 47
2011-08-22 07:30:07 51°21.574 2°45.32 5.7 355 17.4 101810 47
2011-08-22 07:30:12 51°21.58 2°45.306 9.5 352 17.4 101810 47
2011-08-22 07:30:17 51°21.585 2°45.294 6.3 353 17.4 101810 47
2011-08-22 07:30:22 51°21.591 2°45.281 7.6 355 17.4 101810 47
2011-08-22 07:30:27 51°21.597 2°45.268 9.6 354 17.4 101810 47
2011-08-22 07:30:31 51°21.602 2°45.258 6.7 356 17.4 101810 47
2011-08-22 07:30:37 51°21.609 2°45.242 6.9 355 17.4 101810 47
2011-08-22 07:30:42 51°21.615 2°45.229 6.3 359 17.4 101810 48
2011-08-22 07:30:47 51°21.621 2°45.216 6.6 355 17.4 101810 48
2011-08-22 07:30:52 51°21.627 2°45.203 6.9 356 17.4 101810 47
2011-08-22 07:30:57 51°21.633 2°45.19 8.4 355 17.4 101810 47
2011-08-22 07:31:02 51°21.638 2°45.177 6.8 355 17.4 101810 48
2011-08-22 07:31:07 51°21.645 2°45.164 6.5 356 17.4 101810 48
2011-08-22 07:31:12 51°21.651 2°45.152 7.1 356 17.4 101810 47
2011-08-22 07:31:17 51°21.658 2°45.139 8.2 355 17.4 101810 47
2011-08-22 07:31:22 51°21.665 2°45.127 6.7 354 17.4 101810 46
2011-08-22 07:31:27 51°21.672 2°45.115 8.6 353 17.4 101810 46
2011-08-22 07:31:32 51°21.679 2°45.103 6.4 354 17.4 101810 47
2011-08-22 07:31:37 51°21.686 2°45.092 9.4 351 17.4 101810 47
2011-08-22 07:31:42 51°21.693 2°45.081 6.8 352 17.4 101810 47
2011-08-22 07:31:47 51°21.701 2°45.069 9.4 352 17.4 101810 47
2011-08-22 07:31:52 51°21.709 2°45.058 8.1 351 17.4 101810 46
2011-08-22 07:31:57 51°21.716 2°45.047 7.3 351 17.4 101810 46
2011-08-22 07:32:02 51°21.724 2°45.036 9.8 351 17.4 101810 48
2011-08-22 07:32:07 51°21.732 2°45.025 7.1 351 17.4 101810 48
2011-08-22 07:32:12 51°21.739 2°45.015 7.2 277 17.4 101810 47
2011-08-22 07:32:17 51°21.746 2°45.004 7.7 351 17.4 101810 47
2011-08-22 07:32:22 51°21.753 2°44.994 8.2 352 17.4 101800 47
2011-08-22 07:32:26 51°21.758 2°44.985 6.3 353 17.4 101800 47
2011-08-22 07:32:32 51°21.766 2°44.974 7.1 353 17.3 101810 47
2011-08-22 07:32:37 51°21.772 2°44.964 6.4 353 17.3 101810 47
2011-08-22 07:32:42 51°21.778 2°44.954 8.3 354 17.3 101810 47
2011-08-22 07:32:47 51°21.785 2°44.945 7.3 353 17.3 101810 47
2011-08-22 07:32:52 51°21.79 2°44.935 6.7 355 17.3 101810 47
2011-08-22 07:32:57 51°21.796 2°44.925 6.5 355 17.3 101810 47
2011-08-22 07:33:02 51°21.802 2°44.916 6.1 354 17.3 101820 47
2011-08-22 07:33:07 51°21.808 2°44.907 7.9 354 17.3 101820 47
2011-08-22 07:33:12 51°21.813 2°44.897 7.6 352 17.3 101810 48
2011-08-22 07:33:17 51°21.819 2°44.888 6.2 353 17.3 101810 48
2011-08-22 07:33:22 51°21.825 2°44.879 7.5 353 17.3 101810 47
2011-08-22 07:33:27 51°21.83 2°44.87 5.3 352 17.3 101810 47
2011-08-22 07:33:32 51°21.836 2°44.862 7.3 352 17.3 101810 46
2011-08-22 07:33:37 51°21.841 2°44.853 7.7 352 17.3 101810 46
2011-08-22 07:33:42 51°21.847 2°44.844 6.6 352 17.3 101810 47
2011-08-22 07:33:47 51°21.852 2°44.836 7.6 353 17.3 101810 47
2011-08-22 07:33:52 51°21.858 2°44.827 6.5 353 17.3 101820 47
2011-08-22 07:33:57 51°21.864 2°44.819 6.7 353 17.3 101820 47
2011-08-22 07:34:02 51°21.869 2°44.81 6.2 354 17.3 101810 46
2011-08-22 07:34:07 51°21.875 2°44.801 7.9 353 17.3 101810 46
2011-08-22 07:34:12 51°21.88 2°44.793 8.5 355 17.3 101810 47
2011-08-22 07:34:17 51°21.885 2°44.784 6.9 355 17.3 101810 47
2011-08-22 07:34:22 51°21.89 2°44.775 7.2 354 17.3 101810 47
2011-08-22 07:34:27 51°21.896 2°44.766 6.9 355 17.3 101810 47
2011-08-22 07:34:32 51°21.9 2°44.757 7.9 355 17.2 101810 45
2011-08-22 07:34:37 51°21.905 2°44.748 7 356 17.2 101810 45
2011-08-22 07:34:42 51°21.91 2°44.739 6 356 17.2 101810 47
2011-08-22 07:34:46 51°21.914 2°44.732 7.8 356 17.2 101810 47
2011-08-22 07:34:52 51°21.919 2°44.721 8.4 355 17.2 101810 46
2011-08-22 07:34:57 51°21.924 2°44.711 5.6 356 17.2 101810 46
2011-08-22 07:35:02 51°21.929 2°44.702 6.9 357 17.2 101810 46
2011-08-22 07:35:06 51°21.933 2°44.694 6.3 355 17.2 101810 46
2011-08-22 07:35:12 51°21.938 2°44.684 6.7 357 17.2 101810 47
2011-08-22 07:35:17 51°21.943 2°44.674 6.9 355 17.2 101810 47
2011-08-22 07:35:22 51°21.948 2°44.665 6.9 356 17.2 101810 47
2011-08-22 07:35:27 51°21.953 2°44.656 5.7 357 17.2 101810 47
2011-08-22 07:35:32 51°21.958 2°44.646 7.7 355 17.2 101810 47
2011-08-22 07:35:37 51°21.963 2°44.637 6.2 356 17.2 101810 47
2011-08-22 07:35:42 51°21.969 2°44.627 7.2 355 17.3 101810 46
2011-08-22 07:35:47 51°21.974 2°44.617 6.6 356 17.3 101810 46
2011-08-22 07:35:52 51°21.98 2°44.607 7.2 353 17.3 101810 46
2011-08-22 07:35:57 51°21.986 2°44.597 6.5 353 17.3 101810 46
2011-08-22 07:36:02 51°21.992 2°44.587 5.4 354 17.2 101810 47
2011-08-22 07:36:07 51°21.998 2°44.576 6.8 353 17.2 101810 47
2011-08-22 07:36:12 51°22.004 2°44.566 6.7 354 17.2 101810 46
2011-08-22 07:36:17 51°22.01 2°44.556 6.9 354 17.2 101810 46
2011-08-22 07:36:22 51°22.016 2°44.546 4.4 352 17.2 101810 46
2011-08-22 07:36:27 51°22.021 2°44.537 7.4 351 17.2 101810 46
2011-08-22 07:36:32 51°22.027 2°44.527 7.8 352 17.2 101810 46
2011-08-22 07:36:37 51°22.033 2°44.518 6.5 354 17.2 101810 46
2011-08-22 07:36:42 51°22.039 2°44.509 8.2 353 17.2 101810 45
2011-08-22 07:36:47 51°22.045 2°44.499 5.6 351 17.2 101810 45
2011-08-22 07:36:52 51°22.05 2°44.49 6.5 355 17.2 101810 46
2011-08-22 07:36:57 51°22.056 2°44.481 5.9 353 17.2 101810 46
2011-08-22 07:37:02 51°22.061 2°44.472 7.3 355 17.2 101810 47
2011-08-22 07:37:07 51°22.067 2°44.463 6.3 353 17.2 101810 47
2011-08-22 07:37:12 51°22.072 2°44.454 6.1 355 17.3 101810 45
2011-08-22 07:37:17 51°22.077 2°44.445 8.1 355 17.3 101810 45
2011-08-22 07:37:22 51°22.082 2°44.436 5.6 356 17.3 101800 46
2011-08-22 07:37:27 51°22.086 2°44.426 7.1 357 17.3 101800 46
2011-08-22 07:37:32 51°22.091 2°44.417 6.7 356 17.2 101810 46
2011-08-22 07:37:37 51°22.096 2°44.408 6.7 358 17.2 101810 46
2011-08-22 07:37:42 51°22.101 2°44.399 6.1 357 17.2 101810 46
2011-08-22 07:37:47 51°22.106 2°44.39 6 359 17.2 101810 46
2011-08-22 07:37:51 51°22.11 2°44.382 5.8 358 17.2 101810 46
2011-08-22 07:37:57 51°22.117 2°44.37 7.3 357 17.2 101810 46
2011-08-22 07:38:02 51°22.121 2°44.362 5.9 358 17.2 101800 46
2011-08-22 07:38:07 51°22.125 2°44.354 5.7 356 17.2 101800 46
2011-08-22 07:38:12 51°22.129 2°44.345 6.8 357 17.2 101810 46
2011-08-22 07:38:17 51°22.132 2°44.335 7.2 356 17.2 101810 46
2011-08-22 07:38:22 51°22.136 2°44.326 5.7 357 17.3 101800 46
2011-08-22 07:38:27 51°22.141 2°44.318 6.6 358 17.3 101800 46
2011-08-22 07:38:32 51°22.146 2°44.31 6.5 358 17.3 101810 46
2011-08-22 07:38:37 51°22.151 2°44.302 6.8 356 17.3 101810 46
2011-08-22 07:38:42 51°22.156 2°44.294 5.6 357 17.3 101810 47
2011-08-22 07:38:47 51°22.16 2°44.286 6.6 360 17.3 101810 47
2011-08-22 07:38:52 51°22.164 2°44.277 6.3 -999 17.2 101810 46
2011-08-22 07:38:57 51°22.167 2°44.268 6 -999 17.2 101810 46
2011-08-22 07:39:02 51°22.17 2°44.259 6.4 1 17.2 101810 46
2011-08-22 07:39:06 51°22.173 2°44.253 6.1 -999 17.2 101810 46
2011-08-22 07:39:12 51°22.177 2°44.242 5.5 -999 17.2 101810 46
2011-08-22 07:39:17 51°22.181 2°44.233 6.8 359 17.2 101810 46
2011-08-22 07:39:22 51°22.185 2°44.225 6.1 359 17.2 101810 45
2011-08-22 07:39:27 51°22.189 2°44.216 7.2 358 17.2 101810 45
2011-08-22 07:39:31 51°22.192 2°44.209 5.7 1 17.2 101810 46
2011-08-22 07:39:37 51°22.197 2°44.199 7 359 17.2 101810 46
2011-08-22 07:39:42 51°22.203 2°44.191 5.9 357 17.3 101810 46
2011-08-22 07:39:47 51°22.207 2°44.182 7.2 357 17.3 101810 46
2011-08-22 07:39:52 51°22.212 2°44.173 5.6 357 17.2 101810 45
2011-08-22 07:39:57 51°22.216 2°44.163 7.3 357 17.2 101810 45
2011-08-22 07:40:02 51°22.22 2°44.154 4.9 355 17.2 101810 46
2011-08-22 07:40:07 51°22.224 2°44.145 6.7 356 17.2 101810 46
2011-08-22 07:40:12 51°22.229 2°44.135 5.2 355 17.2 101810 47
2011-08-22 07:40:17 51°22.233 2°44.126 5.2 355 17.2 101810 47
2011-08-22 07:40:22 51°22.237 2°44.117 6.1 355 17.2 101810 47
2011-08-22 07:40:27 51°22.241 2°44.109 5.4 355 17.2 101810 47
2011-08-22 07:40:32 51°22.245 2°44.102 6.5 358 17.2 101810 46
2011-08-22 07:40:37 51°22.249 2°44.094 6.4 358 17.2 101810 46
2011-08-22 07:40:42 51°22.253 2°44.088 6.9 356 17.2 101810 46
2011-08-22 07:40:47 51°22.257 2°44.082 5.9 356 17.2 101810 46
2011-08-22 07:40:52 51°22.26 2°44.076 6.7 357 17.3 101810 46
2011-08-22 07:40:57 51°22.264 2°44.071 6.6 355 17.3 101810 46
2011-08-22 07:41:02 51°22.268 2°44.067 6.9 355 17.2 101820 46
2011-08-22 07:41:07 51°22.271 2°44.063 5.3 355 17.2 101820 46
2011-08-22 07:41:12 51°22.275 2°44.059 5.9 356 17.2 101810 47
2011-08-22 07:41:17 51°22.279 2°44.057 5.8 354 17.2 101810 47
2011-08-22 07:41:22 51°22.282 2°44.054 5.1 277 17.2 101810 45
2011-08-22 07:41:27 51°22.286 2°44.052 5.1 354 17.2 101810 45
2011-08-22 07:41:32 51°22.289 2°44.05 5.9 353 17.2 101810 45
2011-08-22 07:41:37 51°22.292 2°44.048 4.4 356 17.2 101810 45
2011-08-22 07:41:42 51°22.294 2°44.046 4.9 352 17.2 101810 46
2011-08-22 07:41:47 51°22.296 2°44.046 4.8 354 17.2 101810 46
2011-08-22 07:41:52 51°22.298 2°44.044 4.7 279 17.2 101810 46
2011-08-22 07:41:57 51°22.3 2°44.042 4.9 350 17.2 101810 46
2011-08-22 07:42:02 51°22.303 2°44.04 4.5 283 17.2 101810 44
2011-08-22 07:42:07 51°22.308 2°44.037 6.4 343 17.2 101810 44
2011-08-22 07:42:12 51°22.312 2°44.035 6 347 17.3 101810 46
2011-08-22 07:42:17 51°22.318 2°44.031 7.2 348 17.3 101810 46
2011-08-22 07:42:22 51°22.324 2°44.027 5.9 351 17.3 101820 47
2011-08-22 07:42:27 51°22.33 2°44.021 6.2 351 17.3 101820 47
2011-08-22 07:42:32 51°22.335 2°44.014 7.3 351 17.3 101820 45
2011-08-22 07:42:37 51°22.341 2°44.006 5.9 358 17.3 101820 45
2011-08-22 07:42:42 51°22.346 2°43.998 6.6 358 17.3 101820 46
2011-08-22 07:42:47 51°22.351 2°43.988 6.8 358 17.3 101820 46
2011-08-22 07:42:51 51°22.354 2°43.98 5.7 357 17.3 101810 46
2011-08-22 07:42:57 51°22.359 2°43.966 5.6 358 17.3 101810 46
2011-08-22 07:43:02 51°22.364 2°43.954 6.5 359 17.3 101810 46
2011-08-22 07:43:07 51°22.368 2°43.942 7.3 358 17.3 101810 46
2011-08-22 07:43:12 51°22.373 2°43.929 7.3 357 17.3 101810 46
2011-08-22 07:43:17 51°22.378 2°43.916 6 357 17.3 101810 46
2011-08-22 07:43:22 51°22.382 2°43.903 6.5 357 17.3 101810 47
2011-08-22 07:43:27 51°22.387 2°43.89 8.2 357 17.3 101810 47
2011-08-22 07:43:32 51°22.392 2°43.877 7.2 356 17.2 101820 46
2011-08-22 07:43:37 51°22.398 2°43.863 7.8 354 17.2 101820 46
2011-08-22 07:43:42 51°22.404 2°43.85 7.2 354 17.2 101810 46
2011-08-22 07:43:47 51°22.409 2°43.837 6.7 352 17.2 101810 46
2011-08-22 07:43:52 51°22.416 2°43.824 7.6 280 17.2 101810 46
2011-08-22 07:43:57 51°22.422 2°43.812 8.4 352 17.2 101810 46
2011-08-22 07:44:02 51°22.429 2°43.8 6.6 348 17.2 101820 46
2011-08-22 07:44:07 51°22.437 2°43.788 6.5 351 17.2 101820 46
2011-08-22 07:44:12 51°22.444 2°43.776 6.4 349 17.3 101810 47
2011-08-22 07:44:17 51°22.451 2°43.764 6.2 349 17.3 101810 47
2011-08-22 07:44:22 51°22.459 2°43.752 6.7 278 17.3 101810 46
2011-08-22 07:44:27 51°22.466 2°43.74 7.1 349 17.3 101810 46
2011-08-22 07:44:31 51°22.472 2°43.731 7.7 350 17.3 101810 47
2011-08-22 07:44:37 51°22.481 2°43.716 8.6 352 17.3 101810 47
2011-08-22 07:44:42 51°22.488 2°43.704 8.5 353 17.3 101810 44
2011-08-22 07:44:46 51°22.494 2°43.694 9.4 352 17.3 101810 44
2011-08-22 07:44:52 51°22.503 2°43.679 7 353 17.3 101810 46
2011-08-22 07:44:57 51°22.51 2°43.667 6.9 353 17.3 101810 46
2011-08-22 07:45:02 51°22.517 2°43.654 6.8 352 17.2 101810 46
2011-08-22 07:45:07 51°22.523 2°43.641 6.8 352 17.2 101810 46
2011-08-22 07:45:12 51°22.53 2°43.627 7.8 353 17.2 101810 45
2011-08-22 07:45:17 51°22.536 2°43.614 6.5 351 17.2 101810 45
2011-08-22 07:45:22 51°22.543 2°43.601 8.4 354 17.2 101810 46
2011-08-22 07:45:27 51°22.549 2°43.587 6.3 352 17.2 101810 46
2011-08-22 07:45:32 51°22.557 2°43.575 7 352 17.2 101810 46
2011-08-22 07:45:37 51°22.563 2°43.562 6.2 350 17.2 101810 46
2011-08-22 07:45:42 51°22.571 2°43.549 6.3 350 17.3 101810 47
2011-08-22 07:45:47 51°22.578 2°43.537 8.4 351 17.3 101810 47
2011-08-22 07:45:52 51°22.586 2°43.525 6.1 351 17.3 101810 47
2011-08-22 07:45:57 51°22.594 2°43.513 7.6 349 17.3 101810 47
2011-08-22 07:46:02 51°22.602 2°43.502 7.4 279 17.2 101810 46
2011-08-22 07:46:07 51°22.609 2°43.489 7.8 350 17.2 101810 46
2011-08-22 07:46:12 51°22.616 2°43.477 7.4 277 17.2 101810 46
2011-08-22 07:46:17 51°22.623 2°43.465 6.1 353 17.2 101810 46
2011-08-22 07:46:22 51°22.63 2°43.453 6.3 352 17.2 101810 46
2011-08-22 07:46:27 51°22.636 2°43.442 6.8 355 17.2 101810 46
2011-08-22 07:46:32 51°22.641 2°43.431 6.3 355 17.2 101810 46
2011-08-22 07:46:37 51°22.646 2°43.42 6.7 356 17.2 101810 46
2011-08-22 07:46:42 51°22.651 2°43.409 6.1 358 17.2 101810 46
2011-08-22 07:46:47 51°22.656 2°43.399 7.3 358 17.2 101810 46
2011-08-22 07:46:51 51°22.659 2°43.391 7.2 359 17.2 101810 46
2011-08-22 07:46:57 51°22.664 2°43.38 6.8 357 17.2 101810 46
2011-08-22 07:47:02 51°22.668 2°43.371 6.9 1 17.2 101820 46
2011-08-22 07:47:06 51°22.671 2°43.364 5.6 359 17.2 101810 45
2011-08-22 07:47:12 51°22.675 2°43.353 6.6 360 17.2 101810 45
2011-08-22 07:47:17 51°22.679 2°43.346 5.4 359 17.2 101820 45
2011-08-22 07:47:22 51°22.683 2°43.339 6.9 358 17.2 101820 45
2011-08-22 07:47:26 51°22.686 2°43.334 7.2 357 17.2 101820 46
2011-08-22 07:47:32 51°22.69 2°43.327 5.4 -999 17.2 101820 46
2011-08-22 07:47:37 51°22.694 2°43.322 5.4 360 17.2 101820 46
2011-08-22 07:47:42 51°22.697 2°43.317 5.8 360 17.2 101820 46
2011-08-22 07:47:46 51°22.699 2°43.314 5 4 17.2 101820 46
2011-08-22 07:47:52 51°22.702 2°43.31 4.1 5 17.2 101820 46
2011-08-22 07:47:57 51°22.704 2°43.308 4.4 6 17.2 101820 46
2011-08-22 07:48:02 51°22.705 2°43.307 4.6 7 17.2 101820 46
2011-08-22 07:48:07 51°22.706 2°43.306 6.2 10 17.2 101810 45
2011-08-22 07:48:12 51°22.707 2°43.305 5.7 9 17.2 101810 45
2011-08-22 07:48:17 51°22.708 2°43.305 5.7 11 17.2 101820 45
2011-08-22 07:48:22 51°22.708 2°43.306 4.7 11 17.2 101820 45
2011-08-22 07:48:26 51°22.708 2°43.307 6.1 9 17.2 101820 46
2011-08-22 07:48:32 51°22.708 2°43.308 5.5 8 17.2 101820 46
2011-08-22 07:48:37 51°22.709 2°43.308 5.5 9 17.2 101820 46
2011-08-22 07:48:42 51°22.709 2°43.309 5.4 9 17.2 101820 46
2011-08-22 07:48:46 51°22.709 2°43.309 5.2 7 17.2 101820 46
2011-08-22 07:48:52 51°22.709 2°43.309 5.8 9 17.2 101820 46
2011-08-22 07:48:57 51°22.71 2°43.309 5.9 8 17.3 101820 45
2011-08-22 07:49:02 51°22.71 2°43.309 5.6 9 17.3 101820 45
2011-08-22 07:49:06 51°22.71 2°43.309 6.4 10 17.2 101820 46
2011-08-22 07:49:12 51°22.71 2°43.309 6 12 17.2 101820 46
2011-08-22 07:49:17 51°22.711 2°43.309 6.5 14 17.2 101820 45
2011-08-22 07:49:22 51°22.711 2°43.309 5.6 15 17.2 101820 45
2011-08-22 07:49:26 51°22.711 2°43.309 5.5 14 17.2 101820 46
2011-08-22 07:49:32 51°22.711 2°43.31 5.2 15 17.2 101820 46
2011-08-22 07:49:37 51°22.712 2°43.31 4.7 17 17.2 101830 45
2011-08-22 07:49:42 51°22.712 2°43.311 5.2 17 17.2 101830 45
2011-08-22 07:49:47 51°22.711 2°43.311 5 20 17.3 101820 45
2011-08-22 07:49:53 51°22.711 2°43.313 4.9 21 17.3 101820 45
2011-08-22 07:49:58 51°22.711 2°43.315 5.8 18 17.3 101820 44
2011-08-22 07:50:04 51°22.711 2°43.317 4.5 20 17.3 101820 44
2011-08-22 07:50:09 51°22.711 2°43.318 5.4 16 17.3 101820 46
2011-08-22 07:50:14 51°22.711 2°43.32 4.3 21 17.3 101820 46
2011-08-22 07:50:18 51°22.711 2°43.321 4.8 21 17.3 101830 45
2011-08-22 07:50:23 51°22.711 2°43.322 4.7 21 17.3 101830 45
2011-08-22 07:50:28 51°22.711 2°43.322 5.3 20 17.3 101830 45
2011-08-22 07:50:33 51°22.711 2°43.322 4.9 15 17.3 101830 45
2011-08-22 07:50:38 51°22.712 2°43.321 5.5 14 17.3 101820 46
2011-08-22 07:50:42 51°22.712 2°43.319 6.3 10 17.3 101820 46
2011-08-22 07:50:47 51°22.713 2°43.318 6 10 17.3 101820 46
2011-08-22 07:50:52 51°22.714 2°43.316 5.3 9 17.3 101820 46
2011-08-22 07:50:57 51°22.715 2°43.314 5.4 8 17.4 101820 46
2011-08-22 07:51:02 51°22.716 2°43.313 4.9 8 17.4 101820 46
2011-08-22 07:51:06 51°22.717 2°43.312 5.6 9 17.4 101820 45
2011-08-22 07:51:12 51°22.717 2°43.311 4.9 8 17.4 101820 45
2011-08-22 07:51:17 51°22.718 2°43.311 5.9 9 17.4 101820 46
2011-08-22 07:51:22 51°22.717 2°43.312 4.9 9 17.4 101820 46
2011-08-22 07:51:26 51°22.717 2°43.312 4.7 8 17.4 101820 45
2011-08-22 07:51:32 51°22.716 2°43.314 5.5 11 17.4 101820 45
2011-08-22 07:51:37 51°22.714 2°43.317 4.5 11 17.4 101820 46
2011-08-22 07:51:42 51°22.713 2°43.319 4.6 9 17.4 101820 46
2011-08-22 07:51:47 51°22.711 2°43.322 4.6 8 17.4 101820 46
2011-08-22 07:51:53 51°22.708 2°43.326 3.6 14 17.4 101820 46
2011-08-22 07:51:58 51°22.705 2°43.33 4.9 11 17.4 101820 46
2011-08-22 07:52:05 51°22.702 2°43.335 4.3 10 17.4 101820 46
2011-08-22 07:52:10 51°22.7 2°43.338 4.2 7 17.4 101820 45
2011-08-22 07:52:15 51°22.698 2°43.34 3.6 9 17.4 101820 45
2011-08-22 07:52:20 51°22.697 2°43.342 3.2 7 17.4 101820 45
2011-08-22 07:52:25 51°22.696 2°43.343 3.1 5 17.4 101820 45
2011-08-22 07:52:30 51°22.697 2°43.343 4.6 2 17.4 101830 46
2011-08-22 07:52:36 51°22.697 2°43.342 5 2 17.4 101830 46
2011-08-22 07:52:40 51°22.698 2°43.342 4.4 357 17.4 101820 44
2011-08-22 07:52:45 51°22.7 2°43.341 4.7 355 17.4 101820 44
2011-08-22 07:52:50 51°22.701 2°43.34 6.1 355 17.4 101820 47
2011-08-22 07:52:54 51°22.703 2°43.338 5.2 350 17.4 101820 47
2011-08-22 07:52:59 51°22.705 2°43.337 4.6 351 17.4 101820 46
2011-08-22 07:53:04 51°22.707 2°43.335 6.1 347 17.4 101820 46
2011-08-22 07:53:09 51°22.71 2°43.333 4.9 345 17.4 101820 46
2011-08-22 07:53:14 51°22.713 2°43.333 3.3 286 17.4 101820 46
2011-08-22 07:53:19 51°22.717 2°43.331 5.7 338 17.4 101820 46
2011-08-22 07:53:24 51°22.721 2°43.331 5.9 279 17.4 101820 46
2011-08-22 07:53:28 51°22.724 2°43.331 6.7 334 17.4 101810 46
2011-08-22 07:53:34 51°22.729 2°43.331 6.6 277 17.4 101810 46
2011-08-22 07:53:38 51°22.732 2°43.332 3.3 332 17.4 101810 45
2011-08-22 07:53:43 51°22.736 2°43.333 5.5 279 17.4 101810 45
2011-08-22 07:53:48 51°22.739 2°43.335 4.9 329 17.4 101810 45
2011-08-22 07:53:53 51°22.742 2°43.336 5.2 277 17.4 101810 45
2011-08-22 07:53:58 51°22.744 2°43.338 4.3 321 17.4 101820 46
2011-08-22 07:54:02 51°22.745 2°43.338 5.9 276 17.4 101820 46
2011-08-22 07:54:07 51°22.745 2°43.338 4.9 322 17.4 101820 45
2011-08-22 07:54:12 51°22.746 2°43.338 4.6 285 17.4 101820 45
2011-08-22 07:54:17 51°22.746 2°43.338 4.1 33 17.4 101820 47
2011-08-22 07:54:22 51°22.746 2°43.337 4.4 277 17.4 101820 47
2011-08-22 07:54:27 51°22.746 2°43.336 4.1 20 17.4 101820 46
2011-08-22 07:54:32 51°22.746 2°43.334 4.8 286 17.4 101820 46
2011-08-22 07:54:38 51°22.745 2°43.332 4 20 17.4 101810 47
2011-08-22 07:54:43 51°22.744 2°43.329 4.2 283 17.4 101810 47
2011-08-22 07:54:49 51°22.743 2°43.326 2.6 26 17.5 101810 46
2011-08-22 07:54:54 51°22.743 2°43.323 4.6 280 17.5 101810 46
2011-08-22 07:55:00 51°22.743 2°43.321 4.1 26 17.5 101810 46
2011-08-22 07:55:05 51°22.743 2°43.318 3.8 278 17.5 101810 46